User: anonymous   Login
Location: Caltech
(34.1382°N, 118.1253°W)
Time: 13:22:05
(UTC-07:00)
Language:

Hamsat - Orbit

View from above orbital plane
View from above orbital plane
View from above satellite
View from above satellite

Ground track
Ground track

The orbit data is extracted from the following two-line orbital elements,

1 28650U 05017B   16146.94540760 +.00000573 +00000-0 +67484-4 0  9995
2 28650 097.6065 129.6714 0023083 336.8363 023.1812 14.88272670598491
Epoch (UTC): 25 May 2016 22:41:23
Eccentricity: 0.0023083
inclination: 97.6065°
perigee height: 587 km
apogee height: 619 km
right ascension of ascending node: 129.6714°
argument of perigee: 336.8363°
revolutions per day: 14.88272670
mean anomaly at epoch: 23.1812°
orbit number at epoch: 59849

The dashed part of the orbit path shows where the satellite is in the earth's shadow,  

DLR